Skip Page Navigation
NASA JPL Caltech
NASA Logo - Jet Propulsion Laboratory + View the NASA Portal
+ Center for Near-Earth Object Studies
JPL Home Earth Solar System Stars & Galaxies Technology
JPL Solar System Dynamics
BODIES ORBITS EPHEMERIDES TOOLS PHYSICAL DATA DISCOVERY FAQ SITE MAP
JPL Small-Body Database Browser
Search: [ help ]  
293 Brasilia (A890 KA)
Classification: Main-belt Asteroid          SPK-ID: 2000293
Ephemeris | Orbit Diagram | Orbital Elements | Mission Design | Physical Parameters | Discovery Circumstances | Close-Approach Data ]

[ hide orbit diagram ]

For accurate long-term ephemerides, please instead use our Horizons system.This orbit viewer was implemented using two-body methods, and hence should not be used for determining accurate long-term trajectories (over several years or decades) or planetary encounter circumstances.


Orbital Elements at Epoch 2459200.5 (2020-Dec-17.0) TDB
Reference: JPL 41 (heliocentric ecliptic J2000)
 Element Value Uncertainty (1-sigma)   Units 
e .1057323145228703 3.6874e-08  
a 2.859925421736793 1.0911e-08 au
q 2.557538887533766 1.0672e-07 au
i 15.58259563258851 4.3131e-06 deg
node 61.29895576688273 1.5471e-05 deg
peri 86.81517165422309 2.7098e-05 deg
M 73.93356943505341 2.0607e-05 deg
tp 2458837.698008477492
(2019-Dec-20.19800848)
0.00010131 TDB
period 1766.568528289918
4.84
1.011e-05
2.768e-08
d
yr
n .2037849051621501 1.1662e-09 deg/d
Q 3.162311955939821 1.2065e-08 au
  Orbit Determination Parameters
   # obs. used (total)      2812  
   data-arc span      40813 days (111.74 yr)  
   first obs. used      1909-04-20  
   last obs. used      2021-01-15  
   planetary ephem.      DE431  
   SB-pert. ephem.      SB431-N16  
   condition code      0  
   norm. resid. RMS      .38086  
   source      ORB  
   producer      Otto Matic  
   solution date      2021-Feb-24 19:03:28  

Additional Information
 Earth MOID = 1.62702 au 
 Jupiter MOID = 2.02031 au 
 T_jup = 3.240 
[ show covariance matrix ]

Ephemeris | Orbit Diagram | Orbital Elements | Mission Design | Physical Parameters | Discovery Circumstances | Close-Approach Data ]

Physical Parameter Table
Parameter Symbol Value Units Sigma Reference Notes
absolute magnitude H 10.24   n/a E2021B10 IRAS observations used: 31
diameter diameter 57.486 km 1.442 urn:nasa:pds:neowise_diameters_albedos::2.0[mainbelt] (http://adsabs.harvard.edu/abs/2014ApJ...791..121M)  
rotation period rot_per 8.173 h n/a LCDB (Rev. 2020-October); Warner et al., 2009 Published Reference List:
[Oey, J. (2006) Minor Planet Bull. 33, 96-99.]
[Stephens, R.D. (2006) Minor Planet Bull. 33, 100-101.]
[Collaborative Asteroid Lightcurve Link (CALL) (2011) http://www.minorplanetobserver.com/DATA/submissions_results.htm]
[Hanus, J.; Durech, J.; Oszkiewicz, D.A.; Behrend, R.; et al. (2016) Astron. Astrophys. 586, A108.]
[Pilcher, F. (2018) Posting on CALL web site: http://www.minorplanet.info/call.html]
[Pilcher, F. (2019) Minor Planet Bull. 46, 130-131.]
geometric albedo albedo 0.056   0.004 urn:nasa:pds:neowise_diameters_albedos::2.0[mainbelt] (http://adsabs.harvard.edu/abs/2014ApJ...791..121M)  
B-V BV 0.721   0.010 EAR-A-5-DDR-UBV-MEAN-VALUES-V1.2 #obs=3; phase (min.=9.47, mean=10.28, max.=10.83) deg.
U-B UB 0.352   0.036 EAR-A-5-DDR-UBV-MEAN-VALUES-V1.2 #obs=3; phase (min.=9.47, mean=10.28, max.=10.83) deg.
Tholen spectral type spec_T CX   n/a EAR-A-5-DDR-TAXONOMY-V4.0 used 2 color indices

293 Brasilia (A890 KA)          Discovered 1890-May-20 by Charlois, A. at Nice
Reference: DISCOVERY.DBLast Updated: 2003-08-29

[ show close-approach data ]
Alternate Designations
 A890 KA = A909 HB 
Ephemeris | Orbit Diagram | Orbital Elements | Mission Design | Physical Parameters | Discovery Circumstances | Close-Approach Data ]
ABOUT SSD CREDITS/AWARDS PRIVACY/COPYRIGHT GLOSSARY LINKS
FirstGov 2021-Feb-28 07:44 UT
(server date/time)  
NASA Home Page
Site Manager:   Ryan S. Park
Webmaster  Alan B. Chamberlin